Regional Weather Roundup
Issued by NWS Sterling, VA

Home | Current Version | Previous Version | Graphics & Text | Print | Product List | Glossary On
Versions: 1 2 3 4 5 6 7 8 9 10 11 12 13 14 15 16 17 18 19 20 21 22 23 24 25 26 27 28 29 30 31 32 33 34 35 36 37 38 39 40 41 42 43 44 45 46 47 48 49 50
000
ASUS41 KLWX 250011
RWRLWX

REGIONAL WEATHER ROUNDUP
NATIONAL WEATHER SERVICE BALTIMORE MD/WASHINGTON DC
800 PM EDT TUE APR 24 2018

Note: "FAIR" indicates few or no clouds below 12,000 feet
with no significant weather and/or obstructions to visibility.
 TC=TEMPERATURE CELSIUS

 * =Non NWS site. Station does not report precipitation (e.g. rain,
    snow, etc.), thunder, or fog.

DCZ001-MDZ009-015-VAZ040>042-051-053>054-250100-
WASHINGTON METRO

CITY           SKY/WX    TMP DP  RH WIND       PRES   REMARKS
WASHINGTON NAT CLOUDY    56  52  86 E10       30.05F
DULLES         LGT RAIN  54  53  97 E13G22    30.03F FOG
ANDREWS AFB    DRIZZLE   54  53  96 NE10      30.03F FOG
FT BELVOIR     LGT RAIN  55  53  93 E7        30.04F FOG
QUANTICO       RAIN      56  55  97 E12       30.02F FOG
COLLEGE PARK*  CLOUDY    54  52  94 E3        30.06F
LEESBURG*      LGT RAIN  52  52 100 E12       30.05F
MANASSAS*      LGT RAIN  55  53  93 E7        30.02F FOG
GAITHERSBURG*  LGT RAIN  53  52  96 VRB6      30.06F FOG

$$

MDZ006>007-011-014-250100-
BALTIMORE METRO

CITY           SKY/WX    TMP DP  RH WIND       PRES   REMARKS
BWI AIRPORT    LGT RAIN  54  53  97 E14       30.07F FOG
MD SCIENCE CTR   N/A     56  52  86 MISG      30.09F
MARTIN STATE   LGT RAIN  55  54  94 NE5       30.11F
ANNAPOLIS      LGT RAIN  56  50  81 E10       30.07F
FORT MEADE*    CLOUDY    52  50  93 E7        30.10S

$$

MDZ012-015-019>023-250100-
MARYLAND EASTERN SHORE

CITY           SKY/WX    TMP DP  RH WIND       PRES   REMARKS
OCEAN CITY     LGT RAIN  52  51  97 E7        30.08F FOG
SALISBURY      LGT RAIN  55  53  93 E14       30.05F FOG
BAY BRIDGE AP* LGT RAIN  54  52  94 E10       30.08S FOG
CAMBRIDGE*     CLOUDY    55  54  94 E9        30.05F FOG
EASTON*        DRIZZLE   55  52  88 E9        30.11F

$$

MDZ017>025-250100-
SOUTHERN MARYLAND

CITY           SKY/WX    TMP DP  RH WIND       PRES   REMARKS
PATUXENT RIVER RAIN      57  54  89 E16       30.02F FOG
ST INIGOES     RAIN      56  54  93 E12       30.00F FOG
LEONARDTOWN*   CLOUDY    54  52  94 E8        30.04S

$$

MDZ003>005-250100-
NORTH CENTRAL MARYLAND

CITY           SKY/WX    TMP DP  RH WIND       PRES   REMARKS
FREDERICK*     RAIN      55  55 100 NE3       30.11S
HAGERSTOWN APT LGT RAIN  55  51  86 E8        30.07S FOG
WESTMINSTER*   RAIN      54  54 100 E6        30.08S

$$

MDZ501>502-250100-
WESTERN MARYLAND

CITY           SKY/WX    TMP DP  RH WIND       PRES   REMARKS
OAKLAND*       CLOUDY    45  45 100 E24G33    29.96F
CUMBERLAND*    CLOUDY    54  52  94 E5        30.08F

$$

VAZ025>031-250100-
SHENANDOAH VALLEY

CITY           SKY/WX    TMP DP  RH WIND       PRES   REMARKS
WINCHESTER*    LGT RAIN  52  50  93 E8        30.05F
FRONT ROYAL*   CLOUDY    52  52 100 N5        30.01F
LURAY*         RAIN      52  52 100 N9G16     29.98F
NEW MARKET*    CLOUDY    54  50  87 NE9       29.97F
STAUNTON*      CLOUDY    52  50  93 N9        29.98S
WAYNESBORO*    CLOUDY    52  51  97 NE6       29.96S

$$

WVZ021-048>050-054>055-250100-
EASTERN WEST VIRGINIA PANHANDLE

CITY           SKY/WX    TMP DP  RH WIND       PRES   REMARKS
MARTINSBURG    LGT RAIN  53  52  96 NE5       30.05F FOG
PETERSBURG*    DRIZZLE   52  50  94 CALM      29.99F

$$

VAZ036>039-050-250100-
CENTRAL FOOTHILLS

CITY           SKY/WX    TMP DP  RH WIND       PRES   REMARKS
CHARLOTTESVILL LGT RAIN  55  53  93 NE10      29.96F FOG
CULPEPER*      RAIN      55  53  94 NE7       30.01F
ORANGE*        DRIZZLE   54  52  94 CALM      29.98S
GORDONSVILLE*  CLOUDY    54  54 100 NE7       29.97S FOG
WARRENTON*     RAIN      55  52  88 NE10      29.99F

$$

VAZ055>057-250100-
NORTH AND CENTRAL PIEDMONT

CITY           SKY/WX    TMP DP  RH WIND       PRES   REMARKS
FREDERICKSBRG* RAIN      55  55 100 E8G16     29.99S
STAFFORD*      RAIN      55  55 100 E10G17    30.03F

$$

NCZ024-NYZ072-PAZ021-071-VAZ022-071-250100-
OTHER REGIONAL OBSERVATIONS

CITY           SKY/WX    TMP DP  RH WIND       PRES   REMARKS
NEW YORK CITY  CLOUDY    58  39  49 SE8G17    30.25S
PHILADELPHIA   CLOUDY    58  45  62 E15       30.16F
PITTSBURGH     LGT RAIN  51  50  96 E8        29.98S
ROANOKE        LGT RAIN  57  53  86 NE9       29.91S
RICHMOND       LGT RAIN  58  58 100 E9        29.93S
RALEIGH        DRIZZLE   62  62 100 E10       29.83S

$$

ANZ530>537-250100-
MARINE OBSERVATIONS

STATION/POSITION TIME  TEMP    WIND        PRES
                       AIR SEA DIR/SP/G
                 (UTC) (F)     (DEG/KT/KT) (MB)
THOMAS PT LIGHT  NOT AVBL
BALT KEY BRIDGE  2342   55      80/ 14/ 18 1018.6F
COVE POINT       2342   54     110/ 13/ 15 1017.7F
LEWISETTA        2342   54 56  110/ 16/ 18 1015.6F
SOLOMONS ISLAND  2342   54 53   70/ 15/ 19 1016.3F
PINEY POINT      2336          100/ 14/ 18   N/A

$$




USA.gov is the U.S. government's official web portal to all federal, state and local government web resources and services.